Find Starlink 31951

NORAD ID: 59890 Int'l Des: 2024-100 Owner: SPXS Country: US Constellation: starlink operational
LEOCIRCULAR

实时位置

正在加载3D地球...

关于 Starlink 31951

正在加载描述...

即将过境

Passes for default location (London). Set your location on the main map for personalized predictions.

高度历史

Loading altitude history...

两行轨道根数

1 59890U 24100F 26139.20491187 .00000071 00000-0 12091-4 0 9996
2 59890 43.0018 86.9600 0000913 259.3299 100.7450 15.27580971111847
Epoch: May 19, 2026 • Age: 8 hours

当前状态

高度 483.3 km
速度 7.63 km/s
星下点 -2.69°S, 13.83°E
发射日期 May 28, 2024
运行时间 1.9 years
类型 internet

技术详情

分类 Payload
质量 730.00 kg
干质量 700.00 kg
总质量 730.00 kg
长度 0.30 m
直径 4.10 m
跨度 29.00 m
形状 Box + pan
制造商 SPXS
平台类型 Starlink V2M
阶段状态 In Orbit
所有者/国家 SPXS/US

Most Searched